| time (UTC) | temp C | wind direction | speed KPH | gust KPH | rain 1hr cm | rain 24hr cm | rain mn cm | humidity % | barometer mb |
| 20260507030002 | 14 | 247 | 0.0 | 0.0 | 0.00 | 0.00 | 0.00 | 75 | 1016.0 |
| 20260507024608 | 14 | 247 | 0.0 | 0.0 | 0.00 | 0.00 | 0.00 | 74 | 1015.8 |
| 20260507023059 | 15 | 247 | 0.0 | 0.0 | 0.00 | 0.00 | 0.00 | 73 | 1015.8 |
| 20260507021603 | 15 | 247 | 0.0 | 0.0 | 0.00 | 0.00 | 0.00 | 73 | 1015.8 |
| 20260507020113 | 15 | 247 | 0.0 | 1.6 | 0.00 | 0.00 | 0.00 | 72 | 1015.7 |
| 20260507014604 | 15 | 247 | 0.0 | 0.0 | 0.00 | 0.00 | 0.00 | 71 | 1015.6 |
| 20260507013058 | 15 | 247 | 0.0 | 0.0 | 0.00 | 0.00 | 0.00 | 71 | 1015.4 |
| 20260507011555 | 15 | 247 | 0.0 | 1.6 | 0.00 | 0.00 | 0.00 | 72 | 1015.2 |
| 20260507004602 | 15 | 247 | 0.0 | 0.0 | 0.00 | 0.00 | 0.00 | 71 | 1015.1 |
| 20260507003053 | 15 | 247 | 0.0 | 0.0 | 0.00 | 0.00 | 0.00 | 71 | 1014.9 |
| 20260507001551 | 15 | 247 | 0.0 | 0.0 | 0.00 | 0.00 | 0.00 | 70 | 1015.0 |
| 20260507000047 | 15 | 247 | 0.0 | 0.0 | 0.00 | 0.00 | 0.00 | 70 | 1015.2 |
| 20260506234548 | 16 | 247 | 0.0 | 1.6 | 0.00 | 0.00 | 0.00 | 68 | 1015.5 |
| 20260506233056 | 16 | 247 | 0.0 | 0.0 | 0.00 | 0.00 | 0.00 | 67 | 1015.7 |
| 20260506231539 | 16 | 247 | 0.0 | 0.0 | 0.00 | 0.00 | 0.00 | 66 | 1015.7 |
| 20260506230046 | 16 | 247 | 0.0 | 0.0 | 0.00 | 0.00 | 0.00 | 65 | 1015.7 |
| 20260506224537 | 16 | 247 | 0.0 | 0.0 | 0.00 | 0.00 | 0.00 | 65 | 1015.8 |
| 20260506223041 | 16 | 247 | 0.0 | 0.0 | 0.00 | 0.00 | 0.00 | 64 | 1015.9 |
| 20260506221532 | 17 | 247 | 0.0 | 0.0 | 0.00 | 0.00 | 0.00 | 63 | 1016.0 |
| 20260506220030 | 17 | 247 | 0.0 | 0.0 | 0.00 | 0.00 | 0.00 | 61 | 1016.0 |
| 20260506214539 | 17 | 247 | 0.0 | 0.0 | 0.00 | 0.00 | 0.00 | 60 | 1016.0 |
| 20260506213027 | 17 | 247 | 0.0 | 0.0 | 0.00 | 0.00 | 0.00 | 59 | 1016.2 |
| 20260506211526 | 17 | 247 | 0.0 | 0.0 | 0.00 | 0.00 | 0.00 | 59 | 1016.3 |
| 20260506210027 | 17 | 247 | 0.0 | 0.0 | 0.00 | 0.00 | 0.00 | 58 | 1016.4 |
| 20260506204524 | 17 | 247 | 0.0 | 0.0 | 0.00 | 0.00 | 0.00 | 57 | 1016.4 |
| 20260506203023 | 18 | 247 | 0.0 | 0.0 | 0.00 | 0.00 | 0.00 | 55 | 1016.5 |
| 20260506201523 | 18 | 247 | 0.0 | 0.0 | 0.00 | 0.00 | 0.00 | 55 | 1016.3 |
| 20260506200021 | 18 | 247 | 0.0 | 0.0 | 0.00 | 0.00 | 0.00 | 54 | 1016.2 |
| 20260506194519 | 19 | 247 | 0.0 | 0.0 | 0.00 | 0.00 | 0.00 | 53 | 1016.1 |
| 20260506193016 | 19 | 247 | 0.0 | 0.0 | 0.00 | 0.00 | 0.00 | 52 | 1015.9 |
| 20260506191516 | 20 | 247 | 0.0 | 0.0 | 0.00 | 0.00 | 0.00 | 52 | 1015.8 |
| 20260506190016 | 20 | 247 | 0.0 | 0.0 | 0.00 | 0.00 | 0.00 | 51 | 1015.6 |
| 20260506184532 | 20 | 247 | 0.0 | 0.0 | 0.00 | 0.00 | 0.00 | 49 | 1015.5 |
| 20260506183022 | 20 | 247 | 0.0 | 1.6 | 0.00 | 0.00 | 0.00 | 47 | 1015.4 |
| 20260506181516 | 21 | 247 | 0.0 | 0.0 | 0.00 | 0.00 | 0.00 | 46 | 1015.2 |
| 20260506180015 | 21 | 247 | 0.0 | 1.6 | 0.00 | 0.00 | 0.00 | 43 | 1015.1 |
| 20260506174513 | 21 | 247 | 0.0 | 4.8 | 0.00 | 0.00 | 0.00 | 41 | 1015.0 |
| 20260506173013 | 21 | 246 | 0.0 | 8.0 | 0.00 | 0.00 | 0.00 | 40 | 1014.9 |
| 20260506171512 | 22 | 249 | 0.0 | 4.8 | 0.00 | 0.00 | 0.00 | 39 | 1014.7 |
| 20260506170012 | 22 | 243 | 1.6 | 4.8 | 0.00 | 0.00 | 0.00 | 38 | 1014.7 |
| 20260506164511 | 22 | 244 | 3.2 | 8.0 | 0.00 | 0.00 | 0.00 | 36 | 1014.8 |
| 20260506163011 | 23 | 286 | 1.6 | 8.0 | 0.00 | 0.00 | 0.00 | 35 | 1014.8 |
| 20260506161513 | 24 | 268 | 1.6 | 6.4 | 0.00 | 0.00 | 0.00 | 34 | 1014.6 |
| 20260506160010 | 25 | 262 | 3.2 | 12.9 | 0.00 | 0.00 | 0.00 | 33 | 1014.7 |
| 20260506154508 | 25 | 260 | 0.0 | 11.3 | 0.00 | 0.00 | 0.00 | 35 | 1014.7 |
| 20260506153018 | 25 | 256 | 4.8 | 12.9 | 0.00 | 0.00 | 0.00 | 33 | 1014.8 |
| 20260506151507 | 25 | 251 | 3.2 | 11.3 | 0.00 | 0.00 | 0.00 | 34 | 1014.8 |
| 20260506150007 | 26 | 276 | 4.8 | 17.7 | 0.00 | 0.00 | 0.00 | 33 | 1014.9 |
| 20260506144513 | 26 | 300 | 1.6 | 12.9 | 0.00 | 0.00 | 0.00 | 34 | 1014.9 |
| 20260506143005 | 26 | 239 | 3.2 | 12.9 | 0.00 | 0.00 | 0.00 | 34 | 1014.8 |
| 20260506141506 | 26 | 235 | 6.4 | 20.9 | 0.00 | 0.00 | 0.00 | 35 | 1014.8 |
| 20260506140005 | 26 | 235 | 3.2 | 16.1 | 0.00 | 0.00 | 0.00 | 34 | 1014.8 |
| 20260506134504 | 26 | 231 | 1.6 | 17.7 | 0.00 | 0.00 | 0.00 | 33 | 1014.9 |
| 20260506133002 | 26 | 259 | 4.8 | 17.7 | 0.00 | 0.00 | 0.00 | 33 | 1014.9 |
| 20260506131502 | 26 | 219 | 1.6 | 16.1 | 0.00 | 0.00 | 0.00 | 33 | 1014.9 |
| 20260506130000 | 26 | 241 | 1.6 | 16.1 | 0.00 | 0.00 | 0.00 | 32 | 1014.9 |
| 20260506124609 | 27 | 175 | 3.2 | 16.1 | 0.00 | 0.00 | 0.00 | 33 | 1015.0 |
| 20260506123101 | 27 | 277 | 6.4 | 14.5 | 0.00 | 0.00 | 0.00 | 30 | 1015.1 |
| 20260506121558 | 27 | 249 | 3.2 | 16.1 | 0.00 | 0.00 | 0.00 | 31 | 1015.1 |
| 20260506120058 | 26 | 241 | 1.6 | 17.7 | 0.00 | 0.00 | 0.00 | 33 | 1015.2 |
| 20260506114602 | 27 | 256 | 3.2 | 16.1 | 0.00 | 0.00 | 0.00 | 34 | 1015.2 |
| 20260506113056 | 27 | 152 | 1.6 | 12.9 | 0.00 | 0.00 | 0.00 | 32 | 1015.4 |
| 20260506111554 | 27 | 180 | 3.2 | 16.1 | 0.00 | 0.00 | 0.00 | 32 | 1015.4 |
| 20260506110054 | 27 | 208 | 3.2 | 19.3 | 0.00 | 0.00 | 0.00 | 35 | 1015.4 |
| 20260506104557 | 27 | 252 | 3.2 | 12.9 | 0.00 | 0.00 | 0.00 | 36 | 1015.3 |
| 20260506103054 | 26 | 243 | 3.2 | 12.9 | 0.00 | 0.00 | 0.00 | 37 | 1015.4 |
| 20260506101548 | 26 | 262 | 4.8 | 14.5 | 0.00 | 0.00 | 0.00 | 37 | 1015.5 |
| 20260506100046 | 26 | 249 | 3.2 | 14.5 | 0.00 | 0.00 | 0.00 | 37 | 1015.6 |
| 20260506094544 | 26 | 223 | 1.6 | 12.9 | 0.00 | 0.00 | 0.00 | 38 | 1015.7 |
| 20260506093040 | 26 | 192 | 1.6 | 8.0 | 0.00 | 0.00 | 0.00 | 38 | 1015.7 |
| 20260506091543 | 26 | 270 | 4.8 | 12.9 | 0.00 | 0.00 | 0.00 | 36 | 1015.8 |
| 20260506090034 | 25 | 185 | 0.0 | 9.7 | 0.00 | 0.00 | 0.00 | 37 | 1015.7 |
| 20260506084535 | 25 | 248 | 6.4 | 12.9 | 0.00 | 0.00 | 0.00 | 38 | 1015.7 |
| 20260506083031 | 25 | 235 | 1.6 | 8.0 | 0.00 | 0.00 | 0.00 | 39 | 1015.7 |
| 20260506081530 | 24 | 310 | 3.2 | 11.3 | 0.00 | 0.00 | 0.00 | 40 | 1015.7 |
| 20260506073120 | 23 | 246 | 0.0 | 11.3 | 0.00 | 0.00 | 0.00 | 42 | 1015.5 |
| 20260506071537 | 23 | 238 | 6.4 | 16.1 | 0.00 | 0.00 | 0.00 | 42 | 1015.3 |
| 20260506070128 | 23 | 288 | 1.6 | 4.8 | 0.00 | 0.00 | 0.00 | 44 | 1015.3 |
| 20260506061556 | 22 | 120 | 0.0 | 3.2 | 0.00 | 0.00 | 0.00 | 47 | 1015.4 |
| 20260506044530 | 15 | 120 | 0.0 | 0.0 | 0.00 | 0.00 | 0.00 | 78 | 1015.0 |
| 20260506043025 | 13 | 120 | 0.0 | 0.0 | 0.00 | 0.00 | 0.00 | 82 | 1015.0 |
| 20260506041522 | 13 | 120 | 0.0 | 0.0 | 0.00 | 0.00 | 0.00 | 81 | 1014.9 |
| 20260506040023 | 13 | 132 | 0.0 | 0.0 | 0.00 | 0.00 | 0.00 | 81 | 1014.8 |
| 20260506034520 | 13 | 132 | 0.0 | 0.0 | 0.00 | 0.00 | 0.00 | 80 | 1014.7 |
| 20260506033015 | 13 | 132 | 0.0 | 0.0 | 0.00 | 0.00 | 0.00 | 80 | 1014.5 |
| 20260506031514 | 13 | 133 | 0.0 | 0.0 | 0.00 | 0.00 | 0.00 | 80 | 1014.5 |